Flag for Norway Weather past 2 weeks in Namsos, Norway

Now
23 °F

Passing clouds.


Feels Like: 12 °F
Forecast: 18 / 24 °F
Wind: 12 mph from Northeast

Location: Namsos Lufthavn

Current Time: Dec 27, 2014 at 7:47:52 AM

Latest Report: Dec 27, 2014 at 6:20 AM


Visibility: N/A

Pressure: 29.95 "Hg

Humidity: 93%

Dew point: 21 °F

Location of NamsosLocation

Historic Weather in Namsos — Graph

°F

Namsos temperature yesterday

Maximum temperature yesterday: 28 °F (at 1:50 PM)
Minimum temperature yesterday: 25 °F (at 5:50 PM)
Average temperature yesterday: 26 °F

Past Weeks' High & Low Weather Summary

 TemperatureHumidityPressure
High43 °F (Dec 15, 6:20 AM)100% (Dec 15, 7:20 PM)29.95 "Hg (Dec 15, 7:20 PM)
Low9 °F (Dec 24, 8:20 AM)49% (Dec 15, 6:20 AM)28.91 "Hg (Dec 12, 8:50 PM)
Average26 °F86%29.17 "Hg
* Reported Dec 12 6:20 AM — Dec 27 6:20 AM, Namsos, Weather by CustomWeather, © 2014

Note: Actual official high and low records may vary slightly from our data, if they occured in-between our weather recording intervals... More about our weather records

Advertising

Namsos weather history for previous 24 hours

 ConditionsComfort  
Time TempWeatherWind HumidityBarometerVisibility
6:20 AM
Dec 27
23 °FPassing clouds.12 mph93%29.95 "HgN/A
5:50 AM23 °FPassing clouds.12 mph93%29.92 "HgN/A
9:50 PM
Dec 26
25 °FPassing clouds.9 mph93%29.95 "HgN/A
9:20 PM25 °FPassing clouds.9 mph93%29.95 "HgN/A
8:50 PM25 °FPassing clouds.8 mph93%29.95 "HgN/A
7:50 PM25 °FPassing clouds.10 mph93%29.92 "Hg3 mi
7:20 PM25 °FSleet. Ice fog.10 mph93%29.92 "Hg3 mi
6:50 PM25 °FSleet. Fog.5 mph100%29.92 "HgN/A
6:20 PM25 °FPassing clouds.7 mph93%29.92 "HgN/A
5:50 PM25 °FPassing clouds.6 mph93%29.92 "HgN/A
5:20 PM27 °FPassing clouds.6 mph93%29.92 "HgN/A
4:20 PM27 °FSnow flurries. Passing clouds.7 mph100%29.92 "HgN/A
3:50 PM27 °FSnow flurries. Passing clouds.3 mph93%29.92 "HgN/A
3:20 PM27 °FSnow flurries. Passing clouds.5 mph100%29.92 "HgN/A
2:50 PM28 °FSnow flurries. Partly cloudy.2 mph93%29.92 "Hg3 mi
2:20 PM28 °FSnow showers. Ice fog.3 mph100%29.92 "Hg1 mi
1:50 PM28 °FSnow showers. Ice fog.6 mph100%29.92 "Hg1 mi
Weather by CustomWeather, © 2014

See weather overviewHow to use our weather pages